• In Latvia
  • List of Countries
  • For 7 days
  • Water Temperature
  • Satellite Maps
  • Weather Map
  • Weather Widgets
  • user-avatar
    Login

    Hourly Weather Mauritius

    Today, 26 April, Wednesday

    Time Temperature Precipitation Wind Pressure Humidity
    00:00 +25°C° 0 mm 4 mps 725 mmHg 81%
    01:00 +25°C° 0 mm 4 mps 725 mmHg 81%
    02:00 +25°C° 0 mm 4 mps 725 mmHg 81%
    03:00 +25°C° 0 mm 4 mps 725 mmHg 82%
    04:00 +25°C° 0 mm 3 mps 725 mmHg 82%
    05:00 +25°C° 0 mm 4 mps 725 mmHg 82%
    06:00 +25°C° 0 mm 4 mps 725 mmHg 81%
    07:00 +25°C° 0 mm 4 mps 725 mmHg 81%
    08:00 +26°C° 0 mm 5 mps 725 mmHg 78%
    09:00 +27°C° 0 mm 5 mps 725 mmHg 75%
    10:00 +27°C° 0 mm 5 mps 725 mmHg 72%
    11:00 +27°C° 0 mm 5 mps 725 mmHg 72%
    12:00 +27°C° 0 mm 5 mps 725 mmHg 73%
    13:00 +27°C° 0 mm 5 mps 725 mmHg 74%
    14:00 +27°C° 0 mm 5 mps 725 mmHg 74%
    15:00 +27°C° 0 mm 5 mps 724 mmHg 74%
    16:00 +27°C° 0 mm 5 mps 724 mmHg 75%
    17:00 +27°C° 0.1 mm 5 mps 725 mmHg 78%
    18:00 +26°C° 0.1 mm 5 mps 725 mmHg 81%
    19:00 +25°C° 0.1 mm 5 mps 725 mmHg 84%
    20:00 +25°C° 0.3 mm 5 mps 725 mmHg 84%
    21:00 +25°C° 0.3 mm 5 mps 725 mmHg 85%
    22:00 +25°C° 0.3 mm 5 mps 726 mmHg 85%
    23:00 +25°C° 0.2 mm 5 mps 726 mmHg 86%

    Tomorrow, 27 April, Thursday

    Time Temperature Precipitation Wind Pressure Humidity
    00:00 +26°C° 0.2 mm 5 mps 726 mmHg 86%
    01:00 +26°C° 0.2 mm 5 mps 726 mmHg 86%
    02:00 +26°C° 0.9 mm 5 mps 725 mmHg 86%
    03:00 +25°C° 0.9 mm 5 mps 725 mmHg 86%
    04:00 +25°C° 0.9 mm 4 mps 725 mmHg 86%
    05:00 +25°C° 0.5 mm 4 mps 725 mmHg 86%
    06:00 +26°C° 0.5 mm 4 mps 725 mmHg 85%
    07:00 +26°C° 0.5 mm 4 mps 725 mmHg 85%
    08:00 +26°C° 0.6 mm 3 mps 726 mmHg 82%
    09:00 +27°C° 0.6 mm 3 mps 726 mmHg 78%
    10:00 +27°C° 0.6 mm 3 mps 726 mmHg 75%
    11:00 +28°C° 1.1 mm 3 mps 726 mmHg 74%
    12:00 +28°C° 1.1 mm 2 mps 726 mmHg 73%
    13:00 +28°C° 1.1 mm 2 mps 726 mmHg 72%
    14:00 +28°C° 0.5 mm 2 mps 726 mmHg 73%
    15:00 +27°C° 0.5 mm 2 mps 725 mmHg 75%
    16:00 +27°C° 0.5 mm 3 mps 725 mmHg 76%
    17:00 +26°C° 0.2 mm 3 mps 725 mmHg 78%
    18:00 +26°C° 0.2 mm 3 mps 726 mmHg 81%
    19:00 +25°C° 0.2 mm 4 mps 726 mmHg 83%
    20:00 +25°C° 0.2 mm 4 mps 726 mmHg 83%
    21:00 +25°C° 0.2 mm 4 mps 726 mmHg 83%
    22:00 +25°C° 0.2 mm 4 mps 727 mmHg 83%
    23:00 +25°C° 0 mm 4 mps 726 mmHg 83%

    Day after tomorrow, 28 April, Friday

    Time Temperature Precipitation Wind Pressure Humidity
    00:00 +25°C° 0 mm 4 mps 726 mmHg 83%
    01:00 +25°C° 0 mm 4 mps 726 mmHg 83%
    02:00 +25°C° 0 mm 4 mps 726 mmHg 84%
    03:00 +25°C° 0 mm 4 mps 725 mmHg 84%
    04:00 +25°C° 0 mm 4 mps 725 mmHg 84%
    05:00 +25°C° 0.3 mm 4 mps 725 mmHg 84%
    06:00 +25°C° 0.3 mm 4 mps 725 mmHg 85%
    07:00 +25°C° 0.3 mm 4 mps 726 mmHg 85%
    08:00 +25°C° 0.5 mm 5 mps 726 mmHg 83%
    09:00 +26°C° 0.5 mm 5 mps 727 mmHg 81%
    10:00 +26°C° 0.5 mm 5 mps 727 mmHg 79%
    11:00 +26°C° 0.4 mm 6 mps 727 mmHg 79%
    12:00 +26°C° 0.4 mm 6 mps 726 mmHg 79%
    13:00 +26°C° 0.4 mm 6 mps 726 mmHg 80%
    14:00 +26°C° 0.4 mm 6 mps 726 mmHg 80%
    15:00 +26°C° 0.4 mm 7 mps 725 mmHg 81%
    16:00 +24°C° 0.4 mm 7 mps 725 mmHg 82%
    17:00 +24°C° 0.2 mm 8 mps 725 mmHg 83%
    18:00 +24°C° 0.2 mm 8 mps 726 mmHg 84%
    19:00 +23°C° 0.2 mm 8 mps 726 mmHg 84%
    20:00 +23°C° 0.1 mm 9 mps 726 mmHg 84%
    21:00 +23°C° 0.1 mm 9 mps 726 mmHg 84%
    22:00 +23°C° 0.1 mm 9 mps 727 mmHg 84%
    23:00 +23°C° 0.3 mm 9 mps 726 mmHg 84%

    29 April, Saturday

    Time Temperature Precipitation Wind Pressure Humidity
    00:00 +23°C° 0.3 mm 9 mps 726 mmHg 84%
    01:00 +23°C° 0.3 mm 8 mps 726 mmHg 84%
    02:00 +23°C° 0.4 mm 8 mps 726 mmHg 84%
    03:00 +23°C° 0.4 mm 8 mps 725 mmHg 84%
    04:00 +23°C° 0.4 mm 8 mps 725 mmHg 84%
    05:00 +23°C° 0.7 mm 9 mps 725 mmHg 84%
    06:00 +23°C° 0.7 mm 9 mps 726 mmHg 85%
    07:00 +23°C° 0.7 mm 9 mps 726 mmHg 85%
    08:00 +23°C° 0.8 mm 9 mps 726 mmHg 84%
    09:00 +23°C° 0.8 mm 10 mps 727 mmHg 83%
    10:00 +24°C° 0.8 mm 10 mps 727 mmHg 81%
    11:00 +24°C° 1.1 mm 10 mps 726 mmHg 82%
    12:00 +24°C° 1.1 mm 10 mps 726 mmHg 82%
    13:00 +24°C° 1.1 mm 10 mps 726 mmHg 82%
    14:00 +23°C° 1.2 mm 10 mps 725 mmHg 83%
    15:00 +23°C° 1.2 mm 10 mps 725 mmHg 84%
    16:00 +23°C° 1.2 mm 10 mps 725 mmHg 84%
    17:00 +23°C° 1 mm 10 mps 725 mmHg 85%
    18:00 +23°C° 1 mm 10 mps 725 mmHg 85%
    19:00 +23°C° 1 mm 11 mps 726 mmHg 85%
    20:00 +23°C° 0.8 mm 10 mps 726 mmHg 85%
    21:00 +23°C° 0.8 mm 10 mps 726 mmHg 85%
    22:00 +23°C° 0.8 mm 10 mps 726 mmHg 85%
    23:00 +23°C° 0.8 mm 10 mps 726 mmHg 85%

    30 April, Sunday

    Time Temperature Precipitation Wind Pressure Humidity
    00:00 +23°C° 0.8 mm 10 mps 726 mmHg 85%
    01:00 +23°C° 0.8 mm 10 mps 725 mmHg 85%
    02:00 +23°C° 0.7 mm 10 mps 725 mmHg 85%
    03:00 +22°C° 0.7 mm 10 mps 725 mmHg 85%
    04:00 +22°C° 0.7 mm 10 mps 724 mmHg 85%
    05:00 +22°C° 0.7 mm 10 mps 725 mmHg 85%
    06:00 +22°C° 0.7 mm 10 mps 725 mmHg 85%
    07:00 +22°C° 0.7 mm 10 mps 725 mmHg 85%
    08:00 +23°C° 0.6 mm 10 mps 726 mmHg 84%
    09:00 +23°C° 0.6 mm 10 mps 726 mmHg 83%
    10:00 +23°C° 0.6 mm 10 mps 726 mmHg 82%
    11:00 +24°C° 0.4 mm 10 mps 726 mmHg 81%
    12:00 +24°C° 0.4 mm 10 mps 725 mmHg 80%
    13:00 +24°C° 0.4 mm 10 mps 725 mmHg 79%
    14:00 +24°C° 0.2 mm 10 mps 725 mmHg 79%
    15:00 +24°C° 0.2 mm 10 mps 725 mmHg 80%
    16:00 +23°C° 0.2 mm 10 mps 725 mmHg 80%
    17:00 +23°C° 0.3 mm 10 mps 725 mmHg 81%
    18:00 +23°C° 0.3 mm 10 mps 725 mmHg 82%
    19:00 +23°C° 0.3 mm 9 mps 726 mmHg 82%
    20:00 +23°C° 0.5 mm 9 mps 726 mmHg 83%
    21:00 +23°C° 0.5 mm 9 mps 726 mmHg 84%
    22:00 +22°C° 0.5 mm 9 mps 726 mmHg 84%
    23:00 +22°C° 0.4 mm 9 mps 726 mmHg 84%

    1 May, Monday

    Time Temperature Precipitation Wind Pressure Humidity
    00:00 +22°C° 0.4 mm 10 mps 725 mmHg 84%
    01:00 +22°C° 0.4 mm 10 mps 725 mmHg 85%
    02:00 +22°C° 0.3 mm 10 mps 725 mmHg 85%
    03:00 +22°C° 0.3 mm 10 mps 724 mmHg 85%
    04:00 +22°C° 0.3 mm 10 mps 724 mmHg 85%
    05:00 +22°C° 0.2 mm 10 mps 724 mmHg 84%
    06:00 +22°C° 0.2 mm 10 mps 725 mmHg 84%
    07:00 +23°C° 0.2 mm 10 mps 725 mmHg 83%
    08:00 +23°C° 0.1 mm 10 mps 725 mmHg 83%
    09:00 +23°C° 0.1 mm 10 mps 725 mmHg 82%
    10:00 +23°C° 0.1 mm 10 mps 725 mmHg 81%
    11:00 +23°C° 0.4 mm 9 mps 725 mmHg 81%
    12:00 +23°C° 0.4 mm 9 mps 724 mmHg 82%
    13:00 +23°C° 0.4 mm 9 mps 724 mmHg 82%
    14:00 +23°C° 1.1 mm 9 mps 724 mmHg 83%
    15:00 +22°C° 1.1 mm 9 mps 724 mmHg 85%
    16:00 +22°C° 1.1 mm 9 mps 724 mmHg 86%
    17:00 +22°C° 1.4 mm 9 mps 724 mmHg 85%
    18:00 +22°C° 1.4 mm 9 mps 725 mmHg 85%
    19:00 +22°C° 1.4 mm 10 mps 725 mmHg 84%
    20:00 +22°C° 0.9 mm 9 mps 725 mmHg 84%
    21:00 +22°C° 0.9 mm 9 mps 725 mmHg 84%
    22:00 +22°C° 0.9 mm 9 mps 725 mmHg 84%
    23:00 +22°C° 0.3 mm 9 mps 725 mmHg 84%
    Show more